Regional Weather Roundup
Issued by NWS Wakefield, VA

Home | Current Version | Previous Version | Text Only | Print | Product List | Glossary Off
Versions: 1 2 3 4 5 6 7 8 9 10 11 12 13 14 15 16 17 18 19 20 21 22 23 24 25 26 27 28

000
ASUS41 KAKQ 191015
RWRAKQ

REGIONAL WEATHER ROUNDUP
NATIONAL WEATHER SERVICE WAKEFIELD VA
600 AM EDT THU APR 19 2018

Note: "fair" indicates few or no clouds below 12,000 feet with no
significant weather and/or obstructions to visibility. * = Denotes
station may not report precipitation (e.g., rain,snow,etc.),
thunder or fog.

VAZ042-051-052>054-056-191100-
NORTHERN VIRGINIA

CITY           SKY/WX    TMP DP  RH WIND       PRES   REMARKS
WASH NATIONAL  FAIR      52  39  61 NE10      29.65F
DULLES         MOCLDY    50  40  68 NW5       29.64F
FORT BELVOIR   FAIR      50  39  66 CALM      29.64F
QUANTICO       FAIR      48  42  80 NE9       29.66F
FREDERICKSBRG* FAIR      48  44  88 SE6       29.66S
STAFFORD*      FAIR      50  43  78 N8        29.69F
WARRENTON      FAIR      49  39  67 N6        29.65S
CULPEPER*      MOCLDY    47  41  78 CALM      29.68R
MANASSAS*      FAIR      50  40  68 N3        29.67F
LEESBURG*      FAIR      50  43  76 N3        29.65S
WINCHESTER     CLOUDY    45  41  87 W5        29.69R
FRONT ROYAL*   CLOUDY    46  41  81 CALM      29.67R
LURAY*         DRIZZLE   50  43  76 SW6       29.70R
$$

VAZ048-049-060>072-079>083-191100-
CENTRAL AND SOUTH CENTRAL VIRGINIA

CITY           SKY/WX    TMP DP  RH WIND       PRES   REMARKS
RICHMOND       FAIR      50  47  89 N10       29.67R
CHESTERFIELD*  FAIR      50  45  83 N8        29.68R
PETERSBURG*    FAIR      56  45  66 NW9G20    29.66R
HANOVER        FAIR      48  44  86 NW3       29.70R
TAPPAHANNOCK*  FAIR      48  46  92 NW5       29.67S
QUINTON*       FAIR      48  46  93 NW12      29.66R
CHARLOTTSVILLE CLOUDY    51  42  71 CALM      29.67R
GORDONSVILLE*  CLOUDY    50  44  80 E3        29.66S
ORANGE*        MOCLDY    50  41  71 CALM      29.66S
LOUISA*        MOCLDY    47  42  84 E5        29.70S
BUMPASS*       FAIR      48  44  84 N3        29.67R
FARMVILLE*     CLOUDY    52  52 100 NE9       29.65R
CREWE*         CLOUDY    56  47  72 N7G22     29.65R
FORT PICKETT*  FAIR      62  44  52 SW8       29.64R
CHASE CITY*    FAIR      65  46  49 CALM      29.65R
CLARKSVILLE*   FAIR      64  45  48 SW6       29.64S
SOUTH HILL*    FAIR      63  47  57 SW8       29.71R
LAWRENCEVILLE* FAIR      64  44  48 SW5       29.64S
EMPORIA*       FAIR      63  45  51 CALM      29.66S
$$

VAZ088>098-191100-
SOUTHEAST VIRGINIA

CITY           SKY/WX    TMP DP  RH WIND       PRES   REMARKS
NORFOLK        FAIR      67  48  50 SW15      29.61R
VIRGINIA BEACH FAIR      65  49  56 SW14      29.62R
NORFOLK NAVAL  FAIR      65  48  54 SW12G18   29.62R
WEST POINT*    FAIR      49  45  87 NW5       29.68R
SALUDA*        PTSUNNY   49  49  99 NW14G20   29.66R
NEWPORT NEWS   FAIR      65  46  50 W10       29.61R
LANGLEY AFB    FAIR      61  49  65 SW9       29.61R
FORT EUSTIS    FAIR      66  47  50 W7        29.59
WILLIAMSBURG*  FAIR      63  46  55 N13G23    29.67R
HR EXEC AP*    FAIR      65  48  54 SW12      29.64R
FRANKLIN*      FAIR      66  47  51 SW6       29.65R
US460-WAKEFLD  FAIR      62  46  55 SW6       29.63R
$$

VAZ020-022-025-037-045-191100-
WEST CENTRAL AND SOUTHWEST VIRGINIA

CITY           SKY/WX    TMP DP  RH WIND       PRES   REMARKS
STAUNTON*      RAIN      49  45  85 CALM      29.73R
WAYNESBORO*    CLOUDY    49  46  90 W3        29.72R
HOT SPRINGS VA LGT RAIN  46  40  81 W15G23    29.74R
LYNCHBURG      LGT RAIN  64  48  56 VRB3      29.66R
DANVILLE       FAIR      62  47  57 SW8       29.66S
SOUTH BOSTON*  FAIR      64  43  47 SW3       29.65S
MARTINSVILLE   CLOUDY    60  49  68 CALM      29.72R
ROANOKE        LGT RAIN  57  48  72 NW3G21    29.73R
BLACKSBURG     CLOUDY    53  49  87 NW9       29.79R
DUBLIN*        DRIZZLE   53  48  82 NW15G22   29.78R
MARION*        CLOUDY    54  50  86 W15G21    29.82R
HILLSVILLE*    CLOUDY    57  51  79 W15G23    29.76R
RICHLANDS*     DRIZZLE   48  36  63 NW7       29.84R
WISE*          CLOUDY    43  43 100 NW9G18    29.89R
ABINGDON*      CLOUDY    56  51  84 N10G16    29.83R
$$

MDZ021>025-VAZ099-100-191100-
SOUTHERN MARYLAND AND THE DELMARVA PENINSULA

CITY           SKY/WX    TMP DP  RH WIND       PRES   REMARKS
PATUXENT RIVER MOCLDY    52  45  77 N17       29.65S
BAY BRIDGE APT CLOUDY    50  43  76 N7        29.68F
LEONARDTOWN    CLOUDY    46  43  87 N6        29.66F
DOVER          CLOUDY    48  43  82 NW16      29.67R
GEORGETOWN     MOCLDY    48  44  86 N7        29.65R
EASTON         CLOUDY    50  43  76 N10G17    29.71R
CAMBRIDGE        N/A     50  45  81 N15       29.65R
SALISBURY      MOCLDY    47  45  93 NW13      29.64R
TANGIER        PTSUNNY   52  52 100 NW26G33   29.65R
OCEAN CITY     FAIR      49  49 100 NW7       29.59R
WALLOPS ISLAND FAIR      59  51  75 W17G25    29.61R
ACCOMACK*      FAIR      64  48  57 W25G33    29.63R
$$

NCZ012>017-030>032-191100-
NORTH CENTRAL AND EASTERN NORTH CAROLINA

CITY           SKY/WX    TMP DP  RH WIND       PRES   REMARKS
ROANOKE RAPIDS FAIR      59  50  72 SW6       29.67R
RALEIGH        FAIR      64  50  60 SW13      29.70S
ELIZABETH CITY FAIR      65  54  67 SW14      29.66R
AHOSKIE*       FAIR      62  50  63 SW3       29.67R
EDENTON*       FAIR      67  55  64 SW10      29.69S
CURRITUCK*     NOT AVBL
KILL DEVIL HLS FAIR      65  53  65 SW9       29.68R
MANTEO         FAIR      65  54  66 SW14      29.70R
CAPE HATTERAS  FAIR      66  58  75 SW21G29   29.75S
TARBORO*       NOT AVBL
GOLDSBORO      FAIR      68  52  55 SW10      29.71R
WASHINGTON     FAIR      67  51  57 SW12      29.71S
GREENVILLE     FAIR      64  52  63 SW9       29.74S
NEW BERN       FAIR      67  50  54 SW9G21    29.75S
WILMINGTON     FAIR      66  52  60 SW13      29.80S
$$

VAZ048-191100-
ELSEWHERE

CITY           SKY/WX    TMP DP  RH WIND       PRES   REMARKS
HARRISBURG PA  MOCLDY    43  40  89 SE5       29.64F
BALTIMORE      MOCLDY    50  38  63 NE9       29.65F
ANNAPOLIS      CLOUDY    54  42  64 N14       29.66F
ANDREWS AFB    FAIR      48  39  69 N9        29.65F
PHILADELPHIA   CLOUDY    49  34  56 N14       29.72R
HENDERSON NC   FAIR      59  44  58 SW7       29.67S
GREENSBORO     FAIR      62  47  57 SW9       29.69S
ROCKY MOUNT    FAIR      66  50  56 SW12      29.69S
$$

VAZ100-191100-
MARINE

STATION/POSITION TIME  TEMP    WIND        PRES    WAVE   SWELL
                       AIR SEA DIR/SP/G            HT/PER HT/PER
                 (UTC) (F)     (DEG/KT/KT) (MB)    (FT/S) (FT/S)
BRANDYWINE LGT   0942   48      30/ 20/ 21 1003.1R
CAPE MAY NJ      0942   48 50   CALM  /  2 1002.2R
LEWES DE         0942   49 50   60/ 10/ 11 1002.1R
15NM E FENWICK I 0950   48 46  270/  6/  8 1001.9R   3/ 4   3/ 4
OCEAN-CITY-INLET 0948   50 49  350/  7/ 10 1002.3R
WACHAPREAGUE VA  0948   58 56  230/  4/  8 1001.6R
THOMAS POINT MD  1000   51 50   30/ 14/ 15 1005.1F
GOOSES REEF MD   1000   50      30/ 16/ 19 1005.0
COVE POINT MD    0948   49     360/ 21/ 25 1004.8R
SOLOMONS ISLAND  0948   50 52  340/ 12/ 15 1003.7R
BISHOPS HEAD MD  0948   49 54  330/ 10/ 16 1004.4R
PINEY POINT MD   0936          350/ 16/ 18   N/A
POTOMAC MD       1000   50 52  330/ 12/ 16 1005.3    2/ 2
CAMBRIDGE MD     0948   50 53              1004.9R
LEWISETTA VA     0948   50 55  360/ 13/ 20 1004.2R
RAPPAHANNOCK LGT 0936          220/  9/ 11 1002.4R
YORK RVR RNG VA  0936   63     260/ 14/ 15 1002.4R
YORKTOWN VA      0936   67 55  230/ 11/ 16 1001.6R
DOMINION TERM VA 0936   62     230/ 12/ 14 1003.0R
KIPTOPEKE VA     0936      53  230/ 12/ 17   N/A
CAPE HENRY VA    0936   67     210/ 13/ 21   N/A
WILLOUBY STN VA  0936   63     230/ 17/ 18 1002.5R
S CRANEY ISL VA  0936   66     230/ 12/ 15 1002.6R
CAPE HENRY BUOY  1000      51                N/A     3/ 4   2/15
64NM E OF VA BCH 0950   56 50  210/ 19/ 23 1004.0R   6/ 6   2/15
DUCK PIER NC     0936   66 48  220/ 16/ 21 1004.1R
44100 DUCK FRF   0945      49                N/A     3/15   2/15
44056 DUCK FRF   1000      49                N/A     2/15   2/15
OREGON INLET NC  0936   63 62  210/ 19/ 23 1005.6R
HATTERAS NC      0936   65 63  230/ 16/ 22 1007.1F
DIAMOND SHLS NC  1000   71 69  230/ 25/ 33 1008.3
CAPE LOOKOUT NC  1000          230/ 15/ 21 1008.8F
$$




USA.gov is the U.S. government's official web portal to all federal, state and local government web resources and services.